,,PA_Meas_PMT16A,,PR_Meas_QMR101_102,,RH_Meas_QMH101,,SR_Meas_QMS101,,TA_Meas_QMH101,,GenWind,,GenWind,
time,status,PA,status,PR,status,RH,status,SR,status,TA,status,DirAvg,status,SpdAvg,
2013-06-21, 00:00:04,VALID,918.297,VALID,0,VALID,95.651,VALID,0,VALID,20.0148,VALID,268,VALID,0,
2013-06-21, 00:01:04,VALID,918.287,VALID,0,VALID,95.651,VALID,0.107441,VALID,20.0343,VALID,61,VALID,0,
2013-06-21, 00:02:04,VALID,918.296,VALID,0,VALID,95.6739,VALID,0.107441,VALID,20.0148,VALID,75,VALID,0,
2013-06-21, 00:03:04,VALID,918.263,VALID,0,VALID,95.6434,VALID,0,VALID,20.0148,VALID,50,VALID,0,
2013-06-21, 00:04:04,VALID,918.297,VALID,0,VALID,95.6434,VALID,0,VALID,20.0148,VALID,44,VALID,0,
2013-06-21, 00:05:04,VALID,918.269,VALID,0,VALID,95.6281,VALID,0.107441,VALID,20.0358,VALID,146,VALID,0,
2013-06-21, 00:06:04,VALID,918.273,VALID,0,VALID,95.6739,VALID,0.107441,VALID,20.0148,VALID,134,VALID,0,
2013-06-21, 00:07:04,VALID,918.252,VALID,0,VALID,95.6434,VALID,0.107441,VALID,19.9953,VALID,166,VALID,0,
2013-06-21, 00:08:04,VALID,918.263,VALID,0,VALID,95.6815,VALID,0.107441,VALID,20.0148,VALID,282,VALID,0,
2013-06-21, 00:09:04,VALID,918.262,VALID,0,VALID,95.6815,VALID,0,VALID,20.0343,VALID,48,VALID,0,
2013-06-21, 00:10:04,VALID,918.254,VALID,0,VALID,95.6815,VALID,0,VALID,20.0343,VALID,62,VALID,0,
2013-06-21, 00:11:04,VALID,918.229,VALID,0,VALID,95.6662,VALID,0.107441,VALID,20.0343,VALID,158,VALID,0,
2013-06-21, 00:12:04,VALID,918.23,VALID,0,VALID,95.6815,VALID,0.107441,VALID,20.0749,VALID,135,VALID,0,
2013-06-21, 00:13:04,VALID,918.206,VALID,0,VALID,95.6739,VALID,0,VALID,20.0133,VALID,121,VALID,0,
2013-06-21, 00:14:04,VALID,918.219,VALID,0,VALID,95.6662,VALID,0,VALID,20.0148,VALID,334,VALID,0,
2013-06-21, 00:15:04,VALID,918.224,VALID,0,VALID,95.712,VALID,0,VALID,20.0553,VALID,262,VALID,0,
2013-06-21, 00:16:04,VALID,918.193,VALID,0,VALID,95.7196,VALID,0,VALID,20.0553,VALID,314,VALID,0,
2013-06-21, 00:17:04,VALID,918.169,VALID,0,VALID,95.6967,VALID,0,VALID,20.0358,VALID,168,VALID,0,
2013-06-21, 00:18:04,VALID,918.161,VALID,0,VALID,95.7044,VALID,0,VALID,20.0358,VALID,26,VALID,0,
2013-06-21, 00:19:04,VALID,918.135,VALID,0,VALID,95.6739,VALID,0,VALID,20.0358,VALID,149,VALID,0,
2013-06-21, 00:20:04,VALID,918.122,VALID,0,VALID,95.6357,VALID,0,VALID,20.0163,VALID,96,VALID,0,
2013-06-21, 00:21:04,VALID,918.124,VALID,0,VALID,95.6357,VALID,0,VALID,20.0163,VALID,220,VALID,0,
2013-06-21, 00:22:04,VALID,918.133,VALID,0,VALID,95.6586,VALID,0,VALID,20.0358,VALID,229,VALID,0,
2013-06-21, 00:23:04,VALID,918.103,VALID,0,VALID,95.6739,VALID,0,VALID,20.0553,VALID,100,VALID,0,
2013-06-21, 00:24:04,VALID,918.068,VALID,0,VALID,95.651,VALID,0,VALID,20.0358,VALID,103,VALID,0,
2013-06-21, 00:25:04,VALID,918.02,VALID,0,VALID,95.6662,VALID,0,VALID,20.0553,VALID,164,VALID,0,
2013-06-21, 00:26:04,VALID,918.035,VALID,0,VALID,95.6967,VALID,0,VALID,20.0358,VALID,115,VALID,0,
2013-06-21, 00:27:04,VALID,918.015,VALID,0,VALID,95.6586,VALID,0,VALID,20.0358,VALID,343,VALID,0,
2013-06-21, 00:28:04,VALID,918.023,VALID,0,VALID,95.651,VALID,0,VALID,20.0163,VALID,358,VALID,0,
2013-06-21, 00:29:04,VALID,918.037,VALID,0,VALID,95.6434,VALID,0,VALID,20.0148,VALID,88,VALID,0,
2013-06-21, 00:30:04,VALID,918.04,VALID,0,VALID,95.651,VALID,0,VALID,20.0163,VALID,258,VALID,0,
2013-06-21, 00:31:04,VALID,918,VALID,0,VALID,95.7349,VALID,0,VALID,20.0553,VALID,238,VALID,0,
2013-06-21, 00:32:04,VALID,917.985,VALID,0,VALID,95.7577,VALID,0,VALID,20.0538,VALID,47,VALID,0,
2013-06-21, 00:33:04,VALID,917.998,VALID,0,VALID,95.7425,VALID,0,VALID,20.0944,VALID,251,VALID,0,
2013-06-21, 00:34:04,VALID,917.963,VALID,0,VALID,95.7806,VALID,0,VALID,20.0944,VALID,171,VALID,0,
2013-06-21, 00:35:04,VALID,917.971,VALID,0,VALID,95.7806,VALID,0,VALID,20.1139,VALID,171,VALID,0,
2013-06-21, 00:36:04,VALID,917.948,VALID,0,VALID,95.8111,VALID,0,VALID,20.1139,VALID,258,VALID,0,
2013-06-21, 00:37:04,VALID,917.923,VALID,0,VALID,95.8111,VALID,0,VALID,20.1334,VALID,338,VALID,0,
2013-06-21, 00:38:04,VALID,917.873,VALID,0,VALID,95.8111,VALID,0,VALID,20.1529,VALID,80,VALID,0,
2013-06-21, 00:39:04,VALID,917.867,VALID,0,VALID,95.7882,VALID,0,VALID,20.1334,VALID,40,VALID,0,
2013-06-21, 00:40:04,VALID,917.807,VALID,0,VALID,95.7882,VALID,0,VALID,20.1529,VALID,29,VALID,0,
2013-06-21, 00:41:04,VALID,917.821,VALID,0,VALID,95.8187,VALID,0,VALID,20.1529,VALID,269,VALID,0,
2013-06-21, 00:42:04,VALID,917.838,VALID,0,VALID,95.8111,VALID,0,VALID,20.1334,VALID,183,VALID,0,
2013-06-21, 00:43:04,VALID,917.862,VALID,0,VALID,95.7958,VALID,0,VALID,20.1724,VALID,174,VALID,0,
2013-06-21, 00:44:04,VALID,917.865,VALID,0,VALID,95.834,VALID,0,VALID,20.1529,VALID,181,VALID,0,
2013-06-21, 00:45:04,VALID,917.825,VALID,0,VALID,95.8568,VALID,0,VALID,20.1724,VALID,203,VALID,0,
2013-06-21, 00:46:04,VALID,917.804,VALID,0,VALID,95.8416,VALID,0,VALID,20.1724,VALID,203,VALID,0,
2013-06-21, 00:47:04,VALID,917.744,VALID,0,VALID,95.8263,VALID,0,VALID,20.1724,VALID,218,VALID,0,
2013-06-21, 00:48:04,VALID,917.779,VALID,0,VALID,95.8111,VALID,0,VALID,20.1529,VALID,302,VALID,0,
2013-06-21, 00:49:04,VALID,917.745,VALID,0,VALID,95.773,VALID,0,VALID,20.1529,VALID,252,VALID,0,
2013-06-21, 00:50:04,VALID,917.724,VALID,0,VALID,95.7501,VALID,0,VALID,20.1529,VALID,229,VALID,0,
2013-06-21, 00:51:04,VALID,917.699,VALID,0,VALID,95.7501,VALID,0,VALID,20.1529,VALID,306,VALID,0,
2013-06-21, 00:52:04,VALID,917.707,VALID,0,VALID,95.7272,VALID,0,VALID,20.1513,VALID,212,VALID,0,
2013-06-21, 00:53:04,VALID,917.699,VALID,0,VALID,95.7349,VALID,0,VALID,20.1529,VALID,130,VALID,0,
2013-06-21, 00:54:04,VALID,917.624,VALID,0,VALID,95.712,VALID,0,VALID,20.1529,VALID,278,VALID,0,
2013-06-21, 00:55:04,VALID,917.653,VALID,0,VALID,95.712,VALID,0,VALID,20.1529,VALID,255,VALID,0,
2013-06-21, 00:56:04,VALID,917.671,VALID,0,VALID,95.712,VALID,0,VALID,20.1513,VALID,256,VALID,0,
2013-06-21, 00:57:04,VALID,917.661,VALID,0,VALID,95.7272,VALID,0,VALID,20.1934,VALID,243,VALID,0,
2013-06-21, 00:58:04,VALID,917.651,VALID,0,VALID,95.7272,VALID,0,VALID,20.1513,VALID,307,VALID,0,
2013-06-21, 00:59:04,VALID,917.629,VALID,0,VALID,95.712,VALID,0,VALID,20.1529,VALID,312,VALID,0,
2013-06-21, 01:00:04,VALID,917.647,VALID,0,VALID,95.6815,VALID,0,VALID,20.1318,VALID,229,VALID,0,
2013-06-21, 01:01:04,VALID,917.654,VALID,0,VALID,95.651,VALID,0,VALID,20.1318,VALID,170,VALID,0,
2013-06-21, 01:02:04,VALID,917.629,VALID,0,VALID,95.6357,VALID,0.107441,VALID,20.1513,VALID,253,VALID,0,
2013-06-21, 01:03:04,VALID,917.592,VALID,0,VALID,95.6205,VALID,0.107441,VALID,20.1513,VALID,123,VALID,0,
2013-06-21, 01:04:04,VALID,917.597,VALID,0,VALID,95.6129,VALID,0.107441,VALID,20.1108,VALID,111,VALID,0,
2013-06-21, 01:05:04,VALID,917.552,VALID,0,VALID,95.59,VALID,0,VALID,20.1123,VALID,201,VALID,0,
2013-06-21, 01:06:04,VALID,917.578,VALID,0,VALID,95.5519,VALID,0,VALID,20.1123,VALID,25,VALID,0,
2013-06-21, 01:07:04,VALID,917.58,VALID,0,VALID,95.5367,VALID,0,VALID,20.1123,VALID,19,VALID,0,
2013-06-21, 01:08:04,VALID,917.581,VALID,0,VALID,95.5443,VALID,0,VALID,20.1123,VALID,268,VALID,0,
2013-06-21, 01:09:04,VALID,917.553,VALID,0,VALID,95.5519,VALID,0.107441,VALID,20.1123,VALID,46,VALID,0,
2013-06-21, 01:10:04,VALID,917.555,VALID,0,VALID,95.5595,VALID,0,VALID,20.1318,VALID,46,VALID,0,
2013-06-21, 01:11:04,VALID,917.541,VALID,0,VALID,95.5748,VALID,0,VALID,20.1318,VALID,101,VALID,0,
2013-06-21, 01:12:04,VALID,917.563,VALID,0,VALID,95.59,VALID,0,VALID,20.1529,VALID,220,VALID,0,
2013-06-21, 01:13:04,VALID,917.529,VALID,0,VALID,95.5443,VALID,0,VALID,20.1334,VALID,328,VALID,0,
2013-06-21, 01:14:04,VALID,917.51,VALID,0,VALID,95.5062,VALID,0,VALID,20.1123,VALID,39,VALID,0,
2013-06-21, 01:15:04,VALID,917.59,VALID,0,VALID,95.4985,VALID,0,VALID,20.1139,VALID,65,VALID,0,
2013-06-21, 01:16:04,VALID,917.611,VALID,0,VALID,95.4833,VALID,0,VALID,20.0944,VALID,116,VALID,0,
2013-06-21, 01:17:04,VALID,917.578,VALID,0,VALID,95.4985,VALID,0,VALID,20.0944,VALID,3,VALID,0,
2013-06-21, 01:18:04,VALID,917.583,VALID,0,VALID,95.5138,VALID,0,VALID,20.0944,VALID,169,VALID,0,
2013-06-21, 01:19:04,VALID,917.598,VALID,0,VALID,95.5214,VALID,0,VALID,20.0944,VALID,205,VALID,0,
2013-06-21, 01:20:04,VALID,917.544,VALID,0,VALID,95.5519,VALID,0,VALID,20.1139,VALID,239,VALID,0,
2013-06-21, 01:21:04,VALID,917.541,VALID,0,VALID,95.5824,VALID,0,VALID,20.1139,VALID,18,VALID,0,
2013-06-21, 01:22:04,VALID,917.561,VALID,0,VALID,95.59,VALID,0,VALID,20.0944,VALID,236,VALID,0,
2013-06-21, 01:23:04,VALID,917.491,VALID,0,VALID,95.5824,VALID,0,VALID,20.0944,VALID,126,VALID,0,
2013-06-21, 01:24:04,VALID,917.465,VALID,0,VALID,95.5519,VALID,0,VALID,20.0553,VALID,114,VALID,0,
2013-06-21, 01:25:04,VALID,917.397,VALID,0,VALID,95.5443,VALID,0,VALID,20.0764,VALID,117,VALID,0,
2013-06-21, 01:26:04,VALID,917.395,VALID,0,VALID,95.4985,VALID,0,VALID,20.0358,VALID,198,VALID,0,
2013-06-21, 01:27:04,VALID,917.386,VALID,0,VALID,95.4985,VALID,0,VALID,20.0163,VALID,232,VALID,0,
2013-06-21, 01:28:04,VALID,917.383,VALID,0,VALID,95.4528,VALID,0,VALID,20.0163,VALID,151,VALID,0,
2013-06-21, 01:29:04,VALID,917.345,VALID,0,VALID,95.4375,VALID,0,VALID,20.0163,VALID,246,VALID,0,
2013-06-21, 01:30:04,VALID,917.392,VALID,0,VALID,95.3842,VALID,0.107441,VALID,19.9953,VALID,26,VALID,0,
2013-06-21, 01:31:04,VALID,917.306,VALID,0,VALID,95.3232,VALID,0,VALID,19.9953,VALID,43,VALID,0,
2013-06-21, 01:32:04,VALID,917.309,VALID,0,VALID,95.3232,VALID,0,VALID,19.9758,VALID,30,VALID,0,
2013-06-21, 01:33:04,VALID,917.237,VALID,0,VALID,95.3079,VALID,0.107441,VALID,19.9953,VALID,341,VALID,0,
2013-06-21, 01:34:04,VALID,917.247,VALID,0,VALID,95.247,VALID,0,VALID,20.0358,VALID,265,VALID,0,
2013-06-21, 01:35:04,VALID,917.233,VALID,0,VALID,95.2241,VALID,0,VALID,20.0343,VALID,245,VALID,0,
2013-06-21, 01:36:04,VALID,917.227,VALID,0,VALID,95.1021,VALID,0,VALID,20.0343,VALID,65,VALID,0,
2013-06-21, 01:37:04,VALID,917.239,VALID,0,VALID,95.0564,VALID,0,VALID,20.0148,VALID,108,VALID,0,
2013-06-21, 01:38:04,VALID,917.231,VALID,0,VALID,95.0564,VALID,0,VALID,20.0148,VALID,156,VALID,0,
2013-06-21, 01:39:04,VALID,917.213,VALID,0,VALID,95.0716,VALID,0,VALID,20.0148,VALID,188,VALID,0,
2013-06-21, 01:40:04,VALID,917.201,VALID,0,VALID,95.1021,VALID,0,VALID,20.0148,VALID,264,VALID,0,
2013-06-21, 01:41:04,VALID,917.156,VALID,0,VALID,94.9725,VALID,0.107441,VALID,19.9953,VALID,6,VALID,0,
2013-06-21, 01:42:04,VALID,917.127,VALID,0,VALID,94.9801,VALID,0,VALID,19.9563,VALID,270,VALID,0,
2013-06-21, 01:43:04,VALID,917.119,VALID,0,VALID,95.0488,VALID,0,VALID,19.9773,VALID,356,VALID,0,
2013-06-21, 01:44:04,VALID,917.091,VALID,0,VALID,95.1174,VALID,0,VALID,19.9773,VALID,339,VALID,0,
2013-06-21, 01:45:04,VALID,917.1,VALID,0,VALID,95.1326,VALID,0,VALID,19.9563,VALID,73,VALID,0,
2013-06-21, 01:46:04,VALID,917.056,VALID,0,VALID,95.2165,VALID,0,VALID,19.9758,VALID,161,VALID,0,
2013-06-21, 01:47:04,VALID,917.08,VALID,0,VALID,95.2241,VALID,0,VALID,19.9758,VALID,221,VALID,0,
2013-06-21, 01:48:04,VALID,917.095,VALID,0,VALID,95.3003,VALID,0,VALID,19.9758,VALID,276,VALID,0,
2013-06-21, 01:49:04,VALID,917.019,VALID,0,VALID,95.247,VALID,0,VALID,19.9758,VALID,2,VALID,0,
2013-06-21, 01:50:04,VALID,917.034,VALID,0,VALID,95.2088,VALID,0,VALID,19.9563,VALID,230,VALID,0,
2013-06-21, 01:51:04,VALID,917.023,VALID,0,VALID,95.3079,VALID,0,VALID,19.9368,VALID,225,VALID,0,
2013-06-21, 01:52:04,VALID,916.992,VALID,0,VALID,95.3384,VALID,0,VALID,19.9773,VALID,232,VALID,0,
2013-06-21, 01:53:04,VALID,917.042,VALID,0,VALID,95.3842,VALID,0.107441,VALID,19.9563,VALID,228,VALID,0,
2013-06-21, 01:54:04,VALID,917.006,VALID,0,VALID,95.3994,VALID,0,VALID,19.9968,VALID,228,VALID,0,
2013-06-21, 01:55:04,VALID,917.034,VALID,0,VALID,95.4604,VALID,0,VALID,19.9758,VALID,263,VALID,0,
2013-06-21, 01:56:04,VALID,916.951,VALID,0,VALID,95.4375,VALID,0,VALID,19.9563,VALID,226,VALID,0,
2013-06-21, 01:57:04,VALID,916.99,VALID,0,VALID,95.4757,VALID,0,VALID,19.9968,VALID,288,VALID,0,
2013-06-21, 01:58:04,VALID,917.004,VALID,0,VALID,95.5062,VALID,0,VALID,19.9953,VALID,223,VALID,0,
2013-06-21, 01:59:04,VALID,917.029,VALID,0,VALID,95.5367,VALID,0,VALID,20.0148,VALID,253,VALID,0,
2013-06-21, 02:00:04,VALID,917.01,VALID,0,VALID,95.5519,VALID,0,VALID,20.0358,VALID,235,VALID,0,
2013-06-21, 02:01:04,VALID,916.994,VALID,0,VALID,95.5519,VALID,0,VALID,20.0148,VALID,256,VALID,0,
2013-06-21, 02:02:04,VALID,917.054,VALID,0,VALID,95.5595,VALID,0,VALID,20.0343,VALID,292,VALID,0,
2013-06-21, 02:03:04,VALID,917.003,VALID,0,VALID,95.5671,VALID,0,VALID,20.0553,VALID,286,VALID,0,
2013-06-21, 02:04:04,VALID,916.969,VALID,0,VALID,95.5748,VALID,0,VALID,20.0538,VALID,66,VALID,0,
2013-06-21, 02:05:04,VALID,916.967,VALID,0,VALID,95.6129,VALID,0,VALID,20.0749,VALID,254,VALID,0,
2013-06-21, 02:06:04,VALID,916.939,VALID,0,VALID,95.6129,VALID,0.107441,VALID,20.0538,VALID,25,VALID,0,
2013-06-21, 02:07:04,VALID,916.918,VALID,0,VALID,95.59,VALID,0.107441,VALID,20.0538,VALID,18,VALID,0,
2013-06-21, 02:08:04,VALID,916.849,VALID,0,VALID,95.5976,VALID,0,VALID,20.0538,VALID,79,VALID,0,
2013-06-21, 02:09:04,VALID,916.845,VALID,0,VALID,95.5824,VALID,0,VALID,20.0538,VALID,104,VALID,0,
2013-06-21, 02:10:04,VALID,916.856,VALID,0,VALID,95.6129,VALID,0,VALID,20.0343,VALID,92,VALID,0,
2013-06-21, 02:11:04,VALID,916.833,VALID,0,VALID,95.6053,VALID,0,VALID,20.0343,VALID,347,VALID,0,
2013-06-21, 02:12:04,VALID,916.867,VALID,0,VALID,95.6129,VALID,0,VALID,20.0343,VALID,185,VALID,0,
2013-06-21, 02:13:04,VALID,916.9,VALID,0,VALID,95.6281,VALID,0,VALID,20.0343,VALID,204,VALID,0,
2013-06-21, 02:14:04,VALID,916.825,VALID,0,VALID,95.6357,VALID,0,VALID,20.0343,VALID,162,VALID,0,
2013-06-21, 02:15:04,VALID,916.76,VALID,0,VALID,95.6129,VALID,0,VALID,20.0343,VALID,205,VALID,0,
2013-06-21, 02:16:04,VALID,916.723,VALID,0,VALID,95.59,VALID,0,VALID,20.0343,VALID,39,VALID,0,
2013-06-21, 02:17:04,VALID,916.838,VALID,0,VALID,95.5443,VALID,0,VALID,20.0343,VALID,237,VALID,0,
2013-06-21, 02:18:04,VALID,916.809,VALID,0,VALID,95.5443,VALID,0,VALID,20.0358,VALID,2,VALID,0,
2013-06-21, 02:19:04,VALID,916.782,VALID,0,VALID,95.5367,VALID,0,VALID,20.0148,VALID,348,VALID,0,
2013-06-21, 02:20:04,VALID,916.794,VALID,0,VALID,95.5367,VALID,0,VALID,20.0343,VALID,10,VALID,0,
2013-06-21, 02:21:04,VALID,916.796,VALID,0,VALID,95.5443,VALID,0,VALID,20.0133,VALID,39,VALID,0,
2013-06-21, 02:22:04,VALID,916.859,VALID,0,VALID,95.5443,VALID,0,VALID,20.0343,VALID,63,VALID,0,
2013-06-21, 02:23:04,VALID,916.835,VALID,0,VALID,95.529,VALID,0,VALID,20.0343,VALID,122,VALID,0,
2013-06-21, 02:24:04,VALID,916.805,VALID,0,VALID,95.529,VALID,0,VALID,20.0358,VALID,122,VALID,0,
2013-06-21, 02:25:04,VALID,916.792,VALID,0,VALID,95.5138,VALID,0,VALID,20.0148,VALID,122,VALID,0,
2013-06-21, 02:26:04,VALID,916.781,VALID,0,VALID,95.5062,VALID,0,VALID,20.0163,VALID,99,VALID,0,
2013-06-21, 02:27:04,VALID,916.7,VALID,0,VALID,95.4909,VALID,0,VALID,19.9758,VALID,55,VALID,0,
2013-06-21, 02:28:04,VALID,916.764,VALID,0,VALID,95.5138,VALID,0,VALID,19.9758,VALID,324,VALID,0,
2013-06-21, 02:29:04,VALID,916.724,VALID,0,VALID,95.5443,VALID,0,VALID,19.9563,VALID,266,VALID,0,
2013-06-21, 02:30:04,VALID,916.705,VALID,0,VALID,95.5671,VALID,0,VALID,19.9758,VALID,1,VALID,0,
2013-06-21, 02:31:04,VALID,916.713,VALID,0,VALID,95.5595,VALID,0,VALID,19.9773,VALID,251,VALID,0,
2013-06-21, 02:32:04,VALID,916.676,VALID,0,VALID,95.5443,VALID,0,VALID,19.9368,VALID,58,VALID,0,
2013-06-21, 02:33:04,VALID,916.685,VALID,0,VALID,95.5214,VALID,0,VALID,19.9188,VALID,17,VALID,0,
2013-06-21, 02:34:04,VALID,916.683,VALID,0,VALID,95.4909,VALID,0,VALID,19.8978,VALID,246,VALID,0,
2013-06-21, 02:35:04,VALID,916.631,VALID,0,VALID,95.5138,VALID,0,VALID,19.9188,VALID,267,VALID,0,
2013-06-21, 02:36:04,VALID,916.657,VALID,0,VALID,95.5214,VALID,0,VALID,19.8783,VALID,73,VALID,0,
2013-06-21, 02:37:04,VALID,916.721,VALID,0,VALID,95.4985,VALID,0,VALID,19.8588,VALID,275,VALID,0,
2013-06-21, 02:38:04,VALID,916.732,VALID,0,VALID,95.5367,VALID,0.107441,VALID,19.8588,VALID,273,VALID,0,
2013-06-21, 02:39:04,VALID,916.771,VALID,0,VALID,95.5062,VALID,0,VALID,19.8588,VALID,209,VALID,0,
2013-06-21, 02:40:04,VALID,916.766,VALID,0,VALID,95.4604,VALID,0,VALID,19.8603,VALID,210,VALID,0,
2013-06-21, 02:41:04,VALID,916.701,VALID,0,VALID,95.4452,VALID,0,VALID,19.8603,VALID,262,VALID,0,
2013-06-21, 02:42:04,VALID,916.692,VALID,0,VALID,95.2851,VALID,0,VALID,19.8588,VALID,12,VALID,0,
2013-06-21, 02:43:04,VALID,916.611,VALID,0,VALID,95.1783,VALID,0,VALID,19.8588,VALID,64,VALID,0,
2013-06-21, 02:44:04,VALID,916.641,VALID,0,VALID,95.1936,VALID,0,VALID,19.8588,VALID,42,VALID,0,
2013-06-21, 02:45:04,VALID,916.649,VALID,0,VALID,95.0716,VALID,0,VALID,19.8393,VALID,121,VALID,0,
2013-06-21, 02:46:04,VALID,916.642,VALID,0,VALID,94.9878,VALID,0,VALID,19.8393,VALID,70,VALID,0,
2013-06-21, 02:47:04,VALID,916.645,VALID,0,VALID,94.8505,VALID,0,VALID,19.8393,VALID,267,VALID,0,
2013-06-21, 02:48:04,VALID,916.593,VALID,0,VALID,94.6676,VALID,0,VALID,19.8588,VALID,76,VALID,0,
2013-06-21, 02:49:04,VALID,916.599,VALID,0,VALID,94.4541,VALID,0,VALID,19.8783,VALID,285,VALID,0,
2013-06-21, 02:50:04,VALID,916.605,VALID,0,VALID,94.3474,VALID,0,VALID,19.8993,VALID,330,VALID,0,
2013-06-21, 02:51:04,VALID,916.633,VALID,0,VALID,94.1416,VALID,0,VALID,19.8783,VALID,198,VALID,0,
2013-06-21, 02:52:04,VALID,916.642,VALID,0,VALID,94.1111,VALID,0,VALID,19.8798,VALID,196,VALID,0,
2013-06-21, 02:53:04,VALID,916.625,VALID,0,VALID,94.1111,VALID,0,VALID,19.8783,VALID,287,VALID,0,
2013-06-21, 02:54:04,VALID,916.674,VALID,0,VALID,94.0348,VALID,0,VALID,19.8783,VALID,278,VALID,0,
2013-06-21, 02:55:04,VALID,916.689,VALID,0,VALID,94.0196,VALID,0,VALID,19.8588,VALID,50,VALID,0,
2013-06-21, 02:56:04,VALID,916.643,VALID,0,VALID,94.2483,VALID,0,VALID,19.8783,VALID,242,VALID,0,
2013-06-21, 02:57:04,VALID,916.647,VALID,0,VALID,94.2483,VALID,0,VALID,19.9383,VALID,254,VALID,0,
2013-06-21, 02:58:04,VALID,916.634,VALID,0,VALID,94.294,VALID,0,VALID,19.8978,VALID,242,VALID,0,
2013-06-21, 02:59:05,VALID,916.63,VALID,0,VALID,94.355,VALID,0,VALID,19.8993,VALID,236,VALID,0,
2013-06-21, 03:00:05,VALID,916.67,VALID,0,VALID,94.4846,VALID,0,VALID,19.8993,VALID,247,VALID,0,
2013-06-21, 03:01:05,VALID,916.595,VALID,0,VALID,94.5913,VALID,0.107441,VALID,19.8993,VALID,245,VALID,0,
2013-06-21, 03:02:05,VALID,916.592,VALID,0,VALID,94.8048,VALID,0.107441,VALID,19.8978,VALID,253,VALID,0,
2013-06-21, 03:03:05,VALID,916.655,VALID,0,VALID,94.8353,VALID,0.107441,VALID,19.8978,VALID,281,VALID,0,
2013-06-21, 03:04:05,VALID,916.568,VALID,0,VALID,94.9039,VALID,0.107441,VALID,19.9188,VALID,235,VALID,0,
2013-06-21, 03:05:05,VALID,916.526,VALID,0,VALID,94.942,VALID,0,VALID,19.9188,VALID,345,VALID,0,
2013-06-21, 03:06:05,VALID,916.55,VALID,0,VALID,94.942,VALID,0,VALID,19.9188,VALID,334,VALID,0,
2013-06-21, 03:07:05,VALID,916.53,VALID,0,VALID,94.9496,VALID,0,VALID,19.9173,VALID,255,VALID,0,
2013-06-21, 03:08:05,VALID,916.51,VALID,0,VALID,94.8963,VALID,0,VALID,19.9383,VALID,247,VALID,0,
2013-06-21, 03:09:05,VALID,916.463,VALID,0,VALID,94.942,VALID,0,VALID,19.9383,VALID,305,VALID,0,
2013-06-21, 03:10:05,VALID,916.452,VALID,0,VALID,94.8963,VALID,0.107441,VALID,19.9368,VALID,203,VALID,0,
2013-06-21, 03:11:05,VALID,916.448,VALID,0,VALID,94.7972,VALID,0,VALID,19.9173,VALID,257,VALID,0,
2013-06-21, 03:12:05,VALID,916.463,VALID,0,VALID,94.7209,VALID,0.107441,VALID,19.9173,VALID,244,VALID,0,
2013-06-21, 03:13:05,VALID,916.482,VALID,0,VALID,94.6523,VALID,0.107441,VALID,19.9383,VALID,212,VALID,0,
2013-06-21, 03:14:05,VALID,916.5,VALID,0,VALID,94.5304,VALID,0.107441,VALID,19.8978,VALID,112,VALID,0,
2013-06-21, 03:15:05,VALID,916.525,VALID,0,VALID,94.5227,VALID,0,VALID,19.8783,VALID,295,VALID,0,
2013-06-21, 03:16:05,VALID,916.479,VALID,0,VALID,94.4389,VALID,0,VALID,19.8978,VALID,296,VALID,0,
2013-06-21, 03:17:05,VALID,916.564,VALID,0,VALID,94.3474,VALID,0.107441,VALID,19.9188,VALID,272,VALID,0,
2013-06-21, 03:18:05,VALID,916.496,VALID,0,VALID,94.416,VALID,0.107441,VALID,19.8783,VALID,245,VALID,0,
2013-06-21, 03:19:05,VALID,916.561,VALID,0,VALID,94.3093,VALID,0,VALID,19.8783,VALID,293,VALID,0,
2013-06-21, 03:20:05,VALID,916.557,VALID,0,VALID,94.2254,VALID,0,VALID,19.8588,VALID,315,VALID,0,
2013-06-21, 03:21:05,VALID,916.542,VALID,0,VALID,94.0958,VALID,0.107441,VALID,19.8198,VALID,257,VALID,0,
2013-06-21, 03:22:05,VALID,916.522,VALID,0,VALID,94.1034,VALID,0.107441,VALID,19.7988,VALID,207,VALID,0,
2013-06-21, 03:23:05,VALID,916.531,VALID,0,VALID,94.1111,VALID,0,VALID,19.8003,VALID,210,VALID,0,
2013-06-21, 03:24:05,VALID,916.493,VALID,0,VALID,94.0043,VALID,0,VALID,19.7808,VALID,141,VALID,0,
2013-06-21, 03:25:05,VALID,916.466,VALID,0,VALID,94.0043,VALID,0,VALID,19.7808,VALID,203,VALID,0,
2013-06-21, 03:26:05,VALID,916.462,VALID,0,VALID,94.1492,VALID,0,VALID,19.7808,VALID,249,VALID,0,
2013-06-21, 03:27:05,VALID,916.427,VALID,0,VALID,94.1873,VALID,0.107441,VALID,19.7613,VALID,275,VALID,0,
2013-06-21, 03:28:05,VALID,916.459,VALID,0,VALID,94.1339,VALID,0.107441,VALID,19.8003,VALID,253,VALID,0,
2013-06-21, 03:29:05,VALID,916.467,VALID,0,VALID,94.0653,VALID,0,VALID,19.8018,VALID,251,VALID,0,
2013-06-21, 03:30:05,VALID,916.411,VALID,0,VALID,94.012,VALID,0,VALID,19.8213,VALID,254,VALID,0,
2013-06-21, 03:31:05,VALID,916.382,VALID,0,VALID,94.012,VALID,0,VALID,19.8408,VALID,250,VALID,0,
2013-06-21, 03:32:05,VALID,916.406,VALID,0,VALID,93.6765,VALID,0.107441,VALID,19.7808,VALID,303,VALID,0,
2013-06-21, 03:33:05,VALID,916.41,VALID,0,VALID,93.5241,VALID,0,VALID,19.7223,VALID,265,VALID,0,
2013-06-21, 03:34:05,VALID,916.344,VALID,0,VALID,93.4859,VALID,0,VALID,19.7043,VALID,71,VALID,0,
2013-06-21, 03:35:05,VALID,916.397,VALID,0,VALID,93.7909,VALID,0.107441,VALID,19.6833,VALID,250,VALID,0,
2013-06-21, 03:36:05,VALID,916.419,VALID,0,VALID,94.1339,VALID,0,VALID,19.7433,VALID,256,VALID,0,
2013-06-21, 03:37:05,VALID,916.473,VALID,0,VALID,94.2254,VALID,0,VALID,19.7418,VALID,264,VALID,0,
2013-06-21, 03:38:05,VALID,916.491,VALID,0,VALID,94.3474,VALID,0.107441,VALID,19.7613,VALID,293,VALID,0,
2013-06-21, 03:39:05,VALID,916.481,VALID,0,VALID,94.3779,VALID,0,VALID,19.7613,VALID,334,VALID,0,
2013-06-21, 03:40:05,VALID,916.479,VALID,0,VALID,94.4541,VALID,0.107441,VALID,19.7628,VALID,296,VALID,0,
2013-06-21, 03:41:05,VALID,916.444,VALID,0,VALID,94.5609,VALID,0.107441,VALID,19.7613,VALID,14,VALID,0,
2013-06-21, 03:42:05,VALID,916.472,VALID,0,VALID,94.4846,VALID,0,VALID,19.7823,VALID,304,VALID,0,
2013-06-21, 03:43:05,VALID,916.487,VALID,0,VALID,94.5609,VALID,0,VALID,19.7808,VALID,346,VALID,0,
2013-06-21, 03:44:05,VALID,916.516,VALID,0,VALID,94.5304,VALID,0.107441,VALID,19.8018,VALID,198,VALID,0,
2013-06-21, 03:45:05,VALID,916.522,VALID,0,VALID,94.6905,VALID,0.107441,VALID,19.8003,VALID,250,VALID,0,
2013-06-21, 03:46:05,VALID,916.493,VALID,0,VALID,94.7209,VALID,0,VALID,19.8198,VALID,260,VALID,0,
2013-06-21, 03:47:05,VALID,916.495,VALID,0,VALID,94.7438,VALID,0.107441,VALID,19.8003,VALID,14,VALID,0,
2013-06-21, 03:48:05,VALID,916.485,VALID,0,VALID,94.6905,VALID,0,VALID,19.7808,VALID,67,VALID,0,
2013-06-21, 03:49:05,VALID,916.479,VALID,0,VALID,94.7819,VALID,0,VALID,19.7613,VALID,242,VALID,0,
2013-06-21, 03:50:05,VALID,916.444,VALID,0,VALID,94.8429,VALID,0,VALID,19.7613,VALID,200,VALID,0,
2013-06-21, 03:51:05,VALID,916.465,VALID,0,VALID,94.942,VALID,0,VALID,19.7613,VALID,249,VALID,0,
2013-06-21, 03:52:05,VALID,916.429,VALID,0,VALID,94.9649,VALID,0.107441,VALID,19.7823,VALID,250,VALID,0,
2013-06-21, 03:53:05,VALID,916.486,VALID,0,VALID,94.942,VALID,0,VALID,19.7823,VALID,180,VALID,0,
2013-06-21, 03:54:05,VALID,916.47,VALID,0,VALID,94.881,VALID,0.107441,VALID,19.7418,VALID,180,VALID,0,
2013-06-21, 03:55:05,VALID,916.468,VALID,0,VALID,94.8582,VALID,0,VALID,19.7433,VALID,73,VALID,0,
2013-06-21, 03:56:05,VALID,916.428,VALID,0,VALID,94.9649,VALID,0.107441,VALID,19.7433,VALID,260,VALID,0,
2013-06-21, 03:57:05,VALID,916.375,VALID,0,VALID,94.8048,VALID,0,VALID,19.7238,VALID,238,VALID,0,